Date,TemperatureHighF,TemperatureAvgF,TemperatureLowF,DewpointHighF,DewpointAvgF,DewpointLowF,HumidityHigh,HumidityAvg,HumidityLow,PressureMaxIn,PressureMinIn,WindSpeedMaxMPH,WindSpeedAvgMPH,GustSpeedMaxMPH,PrecipitationSumIn
2013-5-2,77.3,76.1,75.1,46.7,45.5,44.5,35,34,32,30.72,30.69,0,0,0,0.00
2013-5-3,70.9,63.9,53.5,42.0,34.6,29.0,42,34,27,30.10,30.03,11,4,14,0.00
2013-5-4,74.5,61.1,46.0,44.0,35.5,29.0,56,40,27,30.08,29.94,8,1,15,0.00
2013-5-5,75.4,62.2,47.6,46.0,36.8,24.0,75,43,20,30.00,29.88,9,2,14,0.00
2013-5-6,78.0,61.7,45.3,43.0,34.5,26.0,65,39,17,29.97,29.82,8,1,10,0.00
2013-5-7,80.2,66.3,51.9,52.0,46.6,42.0,85,52,27,29.90,29.79,7,1,12,0.00
2013-5-8,66.5,59.9,54.5,58.0,53.9,47.0,96,81,59,29.85,29.71,10,3,13,0.12
2013-5-9,67.9,57.9,50.8,56.0,51.9,48.0,97,82,54,29.72,29.66,5,1,8,0.00
2013-5-10,74.8,62.6,50.5,58.0,52.6,49.0,96,72,45,29.75,29.58,6,1,9,0.10
2013-5-11,62.7,54.4,46.1,59.0,52.4,45.0,97,93,85,29.57,29.43,15,4,18,0.06
2013-5-12,51.5,44.3,33.3,46.0,36.7,27.0,96,77,44,29.66,29.45,15,5,27,0.01
2013-5-13,44.3,37.8,33.5,33.0,29.2,26.0,90,72,56,29.88,29.65,13,4,21,0.01
2013-5-14,53.1,42.2,31.9,32.0,28.1,23.0,86,60,36,29.92,29.82,9,3,15,0.00
2013-5-15,70.6,50.8,38.0,54.0,38.7,23.0,86,64,50,29.81,29.37,15,4,24,0.05
2013-5-16,72.0,60.7,49.5,45.0,39.5,35.0,67,47,33,29.68,29.48,18,7,30,0.00
2013-5-17,63.8,52.3,40.4,44.0,39.6,35.0,84,63,43,30.01,29.69,11,4,19,0.00
2013-5-18,73.4,59.4,45.6,46.0,42.3,37.0,78,56,30,30.06,29.97,4,1,9,0.00
2013-5-19,61.2,56.0,52.1,55.0,51.3,45.0,93,84,71,30.00,29.88,6,2,11,0.01
2013-5-20,81.5,67.5,56.2,64.0,59.3,53.0,94,76,52,29.88,29.69,5,1,9,0.00
2013-5-21,87.6,71.1,62.0,68.0,63.1,58.0,94,77,50,29.70,29.51,12,2,23,0.95
2013-5-22,83.6,70.9,62.3,70.0,64.9,60.0,96,82,56,29.60,29.49,6,2,13,0.20
2013-5-23,74.7,65.5,59.4,64.0,60.1,57.0,96,83,67,29.56,29.47,8,2,15,0.30
2013-5-24,59.5,42.7,37.9,58.0,41.8,37.0,98,97,93,29.86,29.45,18,8,23,0.20
2013-5-25,42.8,40.2,38.6,41.0,38.6,37.0,97,94,85,29.87,29.81,23,8,28,0.44
2013-5-26,54.9,45.4,39.6,40.0,37.8,35.0,95,76,52,29.95,29.77,16,8,27,0.01
2013-5-27,63.3,53.1,42.6,42.0,35.8,31.0,74,54,33,30.02,29.93,15,4,21,0.00
2013-5-28,66.0,55.4,44.0,53.0,43.3,30.0,94,65,43,29.97,29.83,8,2,9,0.06
2013-5-29,81.5,64.3,54.2,67.0,60.7,53.0,98,89,58,29.83,29.69,11,2,33,0.91
2013-5-30,81.6,71.7,61.1,69.0,65.1,60.0,98,81,63,29.89,29.80,10,2,15,0.00
2013-5-31,89.6,77.6,65.1,68.0,64.2,60.0,90,66,38,29.87,29.70,7,1,13,0.00
2013-6-1,87.1,76.8,64.1,66.0,63.3,60.0,87,64,47,29.71,29.57,7,2,13,0.00
2013-6-2,78.4,70.2,62.7,69.0,63.8,55.0,92,80,62,29.58,29.46,9,3,14,0.27
2013-6-3,62.8,53.8,47.6,56.0,46.9,39.0,93,78,54,29.74,29.57,14,5,19,0.00
2013-6-4,62.3,52.4,43.5,44.0,41.1,39.0,86,67,45,29.94,29.74,16,6,23,0.00
2013-6-5,70.4,59.1,46.1,48.0,42.3,39.0,79,56,36,29.99,29.87,5,1,10,0.00
2013-6-6,62.6,55.8,50.8,55.0,49.4,43.0,96,79,64,29.88,29.71,6,2,10,0.64
2013-6-7,55.5,53.6,52.0,55.0,52.9,51.0,98,97,95,29.71,29.56,7,3,16,0.50
2013-6-8,62.9,55.7,51.9,59.0,54.4,51.0,99,95,85,29.85,29.54,11,3,16,0.00
2013-6-9,73.7,61.1,52.4,58.0,54.1,51.0,96,80,51,29.96,29.84,13,2,16,0.00
2013-6-11,64.1,58.6,54.4,63.0,57.7,54.0,98,97,95,29.49,29.39,18,7,27,0.63
2013-6-12,69.6,59.4,52.1,55.0,52.9,51.0,98,81,56,29.67,29.50,18,6,24,0.00
2013-6-13,56.6,54.5,52.5,54.0,52.7,51.0,98,94,85,29.61,29.37,15,4,23,2.49
2013-6-14,69.1,58.2,51.0,62.0,54.8,50.0,98,89,73,29.70,29.50,15,6,25,0.01
2013-6-15,69.5,60.7,50.7,54.0,49.3,46.0,93,68,45,29.78,29.70,12,4,18,0.00
2013-6-16,67.0,60.6,54.1,62.0,54.6,46.0,97,81,62,29.74,29.48,19,3,21,0.07
2013-6-17,76.8,65.6,58.9,63.0,59.6,55.0,95,82,58,29.69,29.59,12,3,22,0.32
2013-6-18,65.9,59.2,54.2,59.0,54.4,48.0,97,85,59,29.76,29.65,10,2,10,0.02
2013-6-19,68.1,57.8,48.7,53.0,45.7,41.0,95,66,43,29.96,29.75,8,3,18,0.00
2013-6-20,75.1,62.5,45.4,55.0,48.3,42.0,88,62,40,30.04,29.96,8,2,10,0.00
2013-6-21,81.2,68.9,55.1,54.0,49.2,42.0,79,52,27,30.05,29.96,8,1,10,0.00
2013-6-22,84.2,72.9,62.8,65.0,60.2,51.0,85,66,47,29.97,29.81,4,2,9,0.00
2013-6-23,90.5,75.4,68.6,72.0,66.5,63.0,94,75,49,29.86,29.75,10,2,18,0.29
2013-6-24,86.3,71.4,63.2,72.0,65.6,62.0,95,83,59,29.80,29.70,9,1,25,0.85
2013-6-25,83.9,70.3,62.8,71.0,66.5,61.0,97,88,63,29.75,29.56,8,2,15,0.75
2013-6-26,80.7,70.3,64.7,70.0,66.0,64.0,98,87,62,29.59,29.54,8,2,13,0.57
2013-6-27,86.1,72.0,63.7,70.0,65.2,60.0,98,81,49,29.58,29.36,4,1,19,0.80
2013-6-28,73.4,66.3,62.6,66.0,64.0,62.0,98,92,76,29.35,29.19,15,3,24,1.55
2013-6-29,75.3,66.5,60.4,65.0,62.5,60.0,99,87,67,29.46,29.26,7,1,11,0.00
2013-6-30,87.5,70.6,60.0,69.0,64.4,59.0,99,83,46,29.67,29.46,7,1,13,0.65
2013-7-1,69.7,66.9,65.4,68.0,66.4,65.0,99,97,94,29.77,29.66,8,2,14,2.31
2013-7-2,85.2,72.5,66.2,74.0,69.4,66.0,99,90,62,29.87,29.76,8,1,11,0.37
2013-7-3,90.0,77.4,68.7,71.0,69.4,67.0,95,78,53,29.93,29.85,4,2,8,0.00
2013-7-4,87.1,75.5,69.4,75.0,70.4,67.0,96,85,58,29.95,29.86,8,2,11,0.41
2013-7-5,88.8,75.3,68.2,74.0,70.3,67.0,97,86,54,29.92,29.81,10,1,20,0.85
2013-7-6,81.5,72.7,66.8,69.0,67.2,64.0,98,84,59,29.90,29.80,9,2,15,0.01
2013-7-7,85.6,75.1,68.2,74.0,69.9,65.0,98,84,64,29.83,29.67,9,2,14,0.66
2013-7-8,79.5,71.1,66.5,69.0,66.8,65.0,98,87,68,29.81,29.72,8,2,13,0.08
2013-7-9,89.3,75.8,64.8,71.0,66.8,61.0,96,76,45,29.84,29.71,5,1,7,0.00
2013-7-10,80.4,73.6,68.2,72.0,69.3,66.0,94,87,73,29.71,29.52,5,2,10,0.00
2013-7-11,75.0,68.3,61.9,67.0,62.3,60.0,95,81,65,29.77,29.52,13,4,20,0.00
2013-7-12,79.2,68.4,60.4,64.0,59.2,55.0,96,74,52,29.93,29.77,7,2,11,0.00
2013-7-13,79.3,69.5,63.0,70.0,63.8,59.0,95,82,71,30.05,29.93,10,3,14,0.00
2013-7-14,87.6,76.4,67.2,72.0,68.8,66.0,96,79,57,30.09,30.00,7,1,12,0.00
2013-7-15,85.0,76.0,69.9,72.0,67.9,64.0,91,77,59,30.03,29.95,11,3,16,0.00
2013-7-16,86.5,76.8,67.5,72.0,66.9,63.0,87,72,54,30.02,29.94,8,3,14,0.00
2013-7-17,91.3,79.3,67.0,74.0,68.9,64.0,92,72,54,29.98,29.81,9,2,12,0.00
2013-7-18,88.0,79.4,72.8,76.0,71.9,70.0,94,78,58,29.82,29.71,14,4,25,0.16
2013-7-19,89.6,78.7,66.4,74.0,70.0,65.0,94,76,53,29.71,29.49,9,3,23,0.88
2013-7-20,77.7,69.7,61.7,68.0,64.0,59.0,94,83,67,29.64,29.47,12,2,18,0.19
2013-7-21,77.6,68.6,60.0,62.0,58.6,57.0,89,72,52,29.76,29.64,9,2,16,0.00
2013-7-22,81.8,68.1,60.5,70.0,64.2,58.0,96,87,66,29.76,29.57,7,2,12,0.98
2013-7-23,78.8,68.9,63.5,69.0,65.5,63.0,98,89,69,29.56,29.37,9,2,11,0.79
2013-7-24,67.8,60.1,53.1,65.0,55.3,48.0,93,84,72,29.80,29.40,17,5,19,0.00
2013-7-25,73.1,61.0,48.6,55.0,50.5,46.0,91,70,49,29.90,29.80,7,1,12,0.00
2013-7-26,76.4,64.9,51.8,59.0,54.1,49.0,91,70,44,29.87,29.78,6,1,12,0.00
2013-7-27,81.5,68.9,55.1,64.0,58.6,52.0,93,72,47,29.80,29.67,5,1,8,0.16
2013-7-28,74.9,66.9,62.8,66.0,63.7,61.0,96,89,68,29.72,29.65,4,1,16,0.07
2013-7-29,75.7,62.9,55.0,60.0,56.1,53.0,98,80,48,29.89,29.74,11,2,16,0.00
2013-7-30,71.7,62.4,56.4,61.0,56.1,53.0,95,80,60,29.95,29.88,13,3,19,0.01
2013-7-31,81.4,68.1,53.8,60.0,56.5,52.0,93,69,43,29.93,29.77,3,0,6,0.00
2013-8-1,73.7,64.7,60.1,68.0,61.7,57.0,95,90,79,29.76,29.55,6,1,16,0.12
2013-8-2,78.9,64.9,58.5,62.0,58.7,56.0,98,82,49,29.66,29.59,8,2,16,0.01
2013-8-3,72.0,64.1,58.3,61.0,56.9,52.0,95,78,59,29.68,29.57,14,4,20,0.04
2013-8-4,68.0,60.9,55.1,59.0,54.6,52.0,93,80,61,29.77,29.64,16,5,27,0.04
2013-8-5,69.3,60.1,49.6,53.0,49.9,48.0,94,71,48,29.87,29.77,13,4,18,0.01
2013-8-6,79.3,64.7,50.3,57.0,52.1,47.0,90,66,39,29.87,29.83,2,1,7,0.00
2013-8-7,71.7,66.4,60.2,64.0,60.5,55.0,90,82,72,29.85,29.74,6,2,10,0.00
2013-8-8,84.9,73.1,65.5,71.0,66.8,64.0,94,82,60,29.77,29.69,5,1,9,0.00
2013-8-9,74.0,68.7,63.3,71.0,67.1,61.0,97,94,88,29.69,29.57,8,2,14,0.68
2013-8-10,68.4,62.5,53.8,61.0,54.2,46.0,92,76,51,29.86,29.66,14,4,24,0.00
2013-8-11,72.7,60.6,50.0,56.0,52.5,48.0,94,76,54,29.90,29.81,11,1,12,0.00
2013-8-12,77.2,65.5,55.0,60.0,56.9,53.0,91,75,55,29.82,29.67,6,1,11,0.00
2013-8-13,75.8,63.5,54.6,67.0,60.4,51.0,97,90,70,29.67,29.46,12,2,20,0.60
2013-8-14,61.3,55.6,50.9,55.0,51.4,48.0,96,86,78,29.81,29.55,15,4,27,0.16
2013-8-15,69.0,59.3,51.9,54.0,51.6,48.0,92,77,54,29.91,29.82,10,2,18,0.00
2013-8-16,71.4,61.8,51.2,57.0,52.9,49.0,93,74,54,29.99,29.89,7,1,11,0.00
2013-8-17,78.8,65.3,52.3,59.0,54.5,50.0,94,70,43,30.08,30.00,6,1,9,0.00
2013-8-18,78.9,66.8,57.8,63.0,57.9,54.0,89,74,47,30.04,29.88,2,0,3,0.00
2013-8-19,77.1,66.5,58.8,63.0,58.3,56.0,91,76,52,29.88,29.79,6,1,11,0.00
2013-8-20,77.1,67.3,57.6,64.0,59.6,54.0,92,77,60,29.91,29.82,9,2,13,0.00
2013-8-21,82.9,71.1,59.0,65.0,60.9,57.0,93,72,50,29.94,29.80,9,1,11,0.00
2013-8-22,83.3,71.4,62.4,67.0,63.4,58.0,97,77,53,29.81,29.62,13,2,24,0.24
2013-8-23,70.5,63.1,55.8,65.0,56.7,51.0,97,80,58,29.96,29.70,14,4,14,0.01
2013-8-24,74.4,62.4,50.8,56.0,51.7,49.0,95,70,45,30.12,29.96,7,1,12,0.00
2013-8-25,79.1,66.3,53.8,59.0,54.4,50.0,90,68,42,30.14,29.92,6,1,11,0.00
2013-8-26,73.3,66.5,61.3,67.0,62.9,58.0,98,88,75,29.95,29.67,5,2,12,0.40
2013-8-27,78.3,68.9,63.6,69.0,65.6,63.0,99,90,68,29.73,29.65,8,3,13,0.06
2013-8-28,83.8,72.6,63.2,71.0,66.3,62.0,98,82,50,29.68,29.60,5,1,10,0.00
2013-8-29,82.5,70.3,64.4,70.0,65.8,63.0,98,86,61,29.79,29.68,5,1,9,0.00
2013-8-30,84.5,71.1,61.9,69.0,64.5,61.0,99,81,56,29.76,29.56,6,1,8,0.02
2013-8-31,78.1,70.4,66.0,72.0,67.8,64.0,97,91,80,29.60,29.50,8,1,10,0.27
2013-9-1,81.5,72.1,66.1,71.0,67.7,64.0,97,86,66,29.62,29.55,7,1,8,0.00
2013-9-2,82.7,68.7,60.9,71.0,65.3,60.0,98,90,65,29.57,29.41,12,1,29,0.63
2013-9-3,67.2,61.3,58.1,63.0,57.1,55.0,98,87,65,29.66,29.52,10,3,16,0.00
2013-9-4,71.6,63.8,54.8,58.0,55.8,53.0,94,76,55,29.74,29.66,11,3,18,0.02
2013-9-5,62.7,56.8,48.3,59.0,47.4,39.0,95,73,46,29.97,29.67,14,4,21,0.00
2013-9-6,63.4,52.9,40.8,48.0,42.2,37.0,90,69,48,30.06,29.90,9,1,13,0.00
2013-9-7,70.2,58.9,49.9,58.0,50.7,44.0,94,75,40,29.90,29.65,3,1,8,0.03
2013-9-8,60.8,56.3,47.9,59.0,48.9,38.0,98,78,49,29.89,29.60,18,5,22,0.04
2013-9-9,71.8,56.8,42.3,55.0,46.5,40.0,90,71,43,29.99,29.83,5,1,8,0.00
2013-9-10,82.1,70.3,60.5,74.0,65.6,54.0,96,85,72,29.84,29.75,9,3,15,0.27
2013-9-11,90.2,76.4,66.5,75.0,69.8,64.0,96,82,51,29.84,29.68,8,2,14,0.63
2013-9-12,78.5,68.0,62.0,70.0,65.3,59.0,96,91,69,29.67,29.46,12,2,17,0.32
2013-9-13,61.5,53.6,45.5,59.0,52.5,44.0,98,96,90,29.71,29.43,12,6,16,0.04
2013-9-14,57.5,47.6,43.3,49.0,44.6,42.0,97,89,71,29.92,29.70,14,5,18,0.00
2013-9-15,65.3,52.8,40.8,53.0,45.4,40.0,97,78,54,29.98,29.85,4,0,8,0.01
2013-9-16,54.7,49.1,38.9,51.0,46.8,37.0,98,92,77,30.12,29.84,14,4,21,0.06
2013-9-17,62.9,48.8,36.1,44.0,38.9,34.0,94,71,44,30.27,30.12,4,1,8,0.00
2013-9-18,72.1,56.5,43.6,50.0,44.3,39.0,85,66,39,30.12,29.93,4,0,5,0.00
2013-9-19,72.3,55.7,47.7,54.0,47.0,44.0,87,74,52,29.93,29.89,3,0,7,0.00
2013-10-22,45.8,41.2,38.4,34.0,31.1,30.0,76,68,62,29.61,29.56,10,4,17,0.00
2013-10-23,46.4,39.0,34.2,36.0,32.7,30.0,95,79,58,29.59,29.43,9,2,14,0.03
2013-10-24,43.3,36.0,31.7,35.0,31.3,28.0,96,84,56,29.73,29.53,14,5,25,0.04
2013-10-25,41.3,36.1,32.8,36.0,33.6,31.0,97,91,73,29.95,29.73,13,4,19,0.10
2013-10-26,42.4,38.6,34.1,35.0,30.8,27.0,94,75,58,29.93,29.61,12,4,17,0.00
2013-10-27,41.0,38.5,35.6,36.0,33.9,31.0,89,84,75,29.85,29.58,12,4,17,0.02
2013-10-28,46.9,38.8,30.6,38.0,30.8,22.0,83,73,58,30.14,29.84,19,5,23,0.00
2013-10-29,39.6,32.2,24.2,24.0,20.1,16.0,82,62,40,30.25,30.11,5,1,11,0.00
2013-10-30,49.2,39.8,33.3,41.0,33.5,19.0,92,79,53,30.11,29.98,5,1,8,0.04
2013-10-31,57.5,49.7,38.0,56.0,48.1,36.0,96,94,88,29.98,29.36,9,3,13,0.19
2013-11-1,63.5,56.9,47.9,58.0,49.1,39.0,94,77,41,29.45,29.10,17,7,25,0.10
2013-11-2,53.7,44.8,35.0,44.0,40.0,34.0,96,83,65,29.64,29.39,11,3,17,0.00
2013-11-3,35.0,30.1,24.3,34.0,23.8,16.0,95,78,59,30.30,29.64,19,7,19,0.00
2013-11-4,36.6,29.3,21.6,20.0,18.2,16.0,80,64,47,30.45,30.30,8,3,10,0.00
2013-11-5,49.4,40.2,27.7,37.0,30.3,19.0,77,68,59,30.39,30.19,11,3,13,0.00
2013-11-6,55.7,49.4,43.6,48.0,43.0,37.0,87,79,67,30.19,29.66,10,4,16,0.00
2013-11-7,53.7,42.3,32.3,50.0,40.0,31.0,97,91,81,29.69,29.54,17,8,26,0.31
2013-11-8,33.0,32.2,30.6,32.0,30.3,27.0,97,93,84,29.96,29.66,23,7,30,0.06
2013-11-9,39.8,34.9,29.4,33.0,29.5,25.0,96,81,65,30.01,29.64,6,2,12,0.04
2013-11-10,43.7,38.9,33.6,38.0,33.8,29.0,95,82,68,29.81,29.57,27,8,35,0.06
2013-11-11,39.1,35.6,31.1,34.0,31.3,29.0,96,85,72,29.92,29.71,18,5,30,0.06
2013-11-12,30.9,23.7,20.6,30.0,21.5,18.0,96,91,83,30.10,29.77,18,8,26,0.00
2013-11-13,28.4,23.2,18.3,21.0,18.7,16.0,92,83,73,30.18,29.93,11,5,17,0.00
2013-11-14,43.9,35.1,26.1,25.0,19.2,16.0,76,54,34,29.93,29.86,11,4,17,0.00
2013-11-15,51.5,41.9,34.6,24.0,20.4,17.0,53,43,31,29.96,29.88,10,3,13,0.00
2013-11-16,53.9,45.6,38.7,36.0,32.4,22.0,80,61,45,30.07,29.95,4,1,8,0.00
2013-11-19,28.3,27.0,23.1,24.0,21.8,17.0,83,81,77,30.20,30.00,10,6,20,0.00
2013-11-20,33.5,25.4,17.9,19.0,15.9,14.0,85,68,50,30.40,30.20,8,2,11,0.00
2013-11-21,41.5,33.0,21.9,35.0,24.2,13.0,86,70,60,30.38,30.11,8,3,12,0.00
2013-11-22,44.0,40.1,34.3,43.0,38.8,32.0,97,95,87,30.10,29.69,18,4,36,0.19
2013-11-23,33.3,26.6,15.2,32.0,22.7,13.0,95,86,59,29.84,29.64,21,11,38,0.00
2013-11-24,19.2,13.2,8.2,14.0,10.1,6.0,92,87,69,30.12,29.75,26,9,32,0.00
2013-11-25,27.5,19.9,9.6,20.0,13.0,6.0,92,76,53,30.20,29.98,11,3,17,0.00
2013-11-26,31.2,27.9,23.0,31.0,25.8,15.0,97,92,61,30.02,29.64,7,2,13,0.01
2013-11-27,32.4,29.6,22.1,32.0,29.0,21.0,98,97,95,29.61,29.27,0,0,4,0.01
2013-11-28,21.9,17.2,13.9,21.0,15.7,12.0,95,93,92,30.22,29.49,0,0,0,0.00
2013-11-29,25.7,16.9,9.6,25.0,15.5,8.0,98,93,91,30.54,30.23,0,0,0,0.00
2013-11-30,26.6,16.1,6.3,25.0,14.2,4.0,93,92,90,30.54,30.11,0,0,0,0.00
2013-12-1,33.7,30.0,26.7,32.0,28.6,25.0,96,94,91,30.10,29.79,5,0,5,0.06
2013-12-2,34.3,32.5,30.9,33.0,31.7,30.0,97,96,95,29.79,29.67,2,0,4,0.21
2013-12-3,33.3,31.5,25.5,32.0,30.2,24.0,98,95,91,29.80,29.68,3,1,8,0.12
2013-12-4,36.9,30.2,24.9,35.0,28.5,24.0,97,93,88,29.90,29.80,5,2,9,0.21
2013-12-5,51.1,44.6,31.2,50.0,43.1,29.0,98,94,91,29.88,29.66,12,5,24,0.56
2013-12-6,39.4,31.7,27.6,39.0,30.2,26.0,98,94,86,29.97,29.73,16,6,22,0.10
2013-12-7,27.5,25.0,21.6,27.0,22.6,17.0,96,90,80,30.29,29.95,18,7,23,0.00
2013-12-8,23.8,21.6,18.2,20.0,18.1,16.0,91,86,75,30.36,30.15,9,2,11,0.00
2013-12-9,35.7,29.1,21.6,34.0,27.4,20.0,97,93,83,30.13,29.70,14,6,19,0.06
2013-12-10,30.2,23.7,18.4,25.0,19.1,14.0,93,83,73,29.79,29.64,13,6,26,0.00
2013-12-11,22.2,19.4,15.9,19.0,13.9,8.0,90,79,67,29.98,29.79,16,6,23,0.00
2013-12-12,15.7,11.8,3.7,13.0,7.6,1.0,91,83,73,30.09,29.80,11,3,21,0.00
2013-12-13,20.4,14.7,6.6,18.0,11.1,3.0,92,85,77,30.17,29.77,14,6,30,0.00
2013-12-14,11.0,6.7,4.7,9.0,2.8,-3.0,91,84,69,30.29,29.74,16,5,21,0.00
2013-12-15,22.7,19.1,11.5,21.0,17.4,9.0,94,93,90,29.72,29.42,18,6,27,0.00
2013-12-16,18.9,11.4,4.9,16.0,9.0,2.0,91,89,83,29.98,29.55,19,4,25,0.00
2013-12-17,18.8,9.5,2.6,17.0,7.4,0.0,94,91,88,29.97,29.78,6,2,9,0.00
2013-12-18,26.5,21.8,11.0,23.0,19.0,9.0,94,89,83,29.86,29.76,13,3,19,0.00
2013-12-19,35.7,30.4,23.2,29.0,24.1,19.0,89,78,67,29.87,29.75,11,4,15,0.03
2013-12-20,44.2,39.6,33.8,41.0,35.6,28.0,97,86,67,29.84,29.64,9,3,11,0.31
2013-12-21,50.0,47.5,41.9,49.0,46.5,41.0,98,96,92,29.65,29.55,7,2,14,0.44
2013-12-22,61.0,51.7,37.3,57.0,48.8,36.0,98,90,76,29.72,29.36,17,5,20,0.03
2013-12-23,38.3,34.0,23.4,38.0,33.3,22.0,98,97,94,29.98,29.71,19,5,26,0.09
2013-12-24,23.1,18.0,8.2,22.0,15.6,6.0,94,90,86,30.15,29.93,18,6,25,0.00
2013-12-25,19.4,9.4,0.5,14.0,6.7,-2.0,91,89,80,30.33,30.12,11,3,17,0.00
2013-12-26,25.4,21.8,18.3,23.0,19.2,14.0,93,89,80,30.12,29.89,13,4,17,0.00
2013-12-27,27.1,23.8,20.1,25.0,20.5,16.0,94,87,81,30.05,29.97,12,3,16,0.00
2013-12-28,38.0,32.4,24.3,31.0,27.7,22.0,92,83,71,29.96,29.79,9,3,13,0.06
2013-12-29,40.6,35.6,31.9,35.0,30.8,28.0,97,83,62,29.78,29.40,10,1,16,0.22
2013-12-30,34.4,17.3,7.1,33.0,14.8,5.0,96,89,76,29.97,29.44,18,8,30,0.04
2013-12-31,20.7,13.1,6.5,18.0,9.0,3.0,91,84,65,29.99,29.77,20,4,34,0.00
2014-1-1,15.8,13.1,9.6,12.0,9.1,6.0,90,84,76,30.15,29.98,12,3,18,0.00
2014-1-2,10.3,6.6,3.8,8.0,4.1,1.0,90,89,88,30.10,29.68,14,6,19,0.00